Change the Weather History Date:

Monday, October 1, 2012

  Actual Average (KEGE) Record (KEGE)
Temperature  
Mean Temperature 50 °F -  
Max Temperature 69 °F 72 °F 82 °F (1980)
Min Temperature 30 °F 30 °F 18 °F (1966)
Degree Days  
Heating Degree Days 16    
Moisture  
Dew Point 26 °F    
Average Humidity 48    
Maximum Humidity 87    
Minimum Humidity 9    
Precipitation  
Precipitation 0.00 in - - ()
Sea Level Pressure  
Sea Level Pressure 30.36 in    
Wind  
Wind Speed 2 mph (NNW)    
Max Wind Speed 13 mph    
Max Gust Speed 17 mph    
Visibility 10 miles    
Events      
Averages and records for this station are not official NWS values.
T = Trace of Precipitation, MM = Missing Value Source: NWS Daily Summary

Daily Weather History Graph

Daily Weather History Graph

Search for Another Location

Airport or City:

Trip Planner

Search our weather history database for the weather conditions in past years. The results will help you decide how hot, cold, wet, or windy it might be!

Date:

Astronomy

Oct. 01, 2012 Rise Set
Actual Time 7:02 AM MDT 6:46 PM MDT
Civil Twilight 6:35 AM MDT 7:13 PM MDT
Nautical Twilight 6:03 AM MDT 7:45 PM MDT
Astronomical Twilight 5:32 AM MDT 8:16 PM MDT
Moon 7:25 PM MDT (10/1) 8:34 AM MDT (10/1)
Length of Visible Light 12h 38m
Length of Day
11h 44m
Full, 97% of the Moon is Illuminated
Oct 1
Full
Oct 8
Last Quarter
Oct 15
New
Oct 21
First Quarter
Oct 29
Full

Hourly Weather History & Observations

Time (MDT) Temp. Windchill Dew Point Humidity Pressure Visibility Wind Dir Wind Speed Gust Speed Precip Events Conditions
12:13 AM 37.4 °F - 28.4 °F 70% 30.36 in 10.0 mi Calm Calm - N/A   Scattered Clouds
12:33 AM 37.4 °F - 28.4 °F 70% 30.37 in 10.0 mi Calm Calm - N/A   Overcast
12:55 AM 37.4 °F - 30.2 °F 75% 30.36 in 10.0 mi Calm Calm - N/A   Overcast
1:32 AM 39.2 °F - 32.0 °F 75% 30.37 in 10.0 mi Calm Calm - N/A   Overcast
2:08 AM 37.4 °F - 30.2 °F 75% 30.38 in 10.0 mi Calm Calm - N/A   Scattered Clouds
2:35 AM 35.6 °F - 30.2 °F 81% 30.38 in 10.0 mi Calm Calm - N/A   Clear
2:55 AM 35.6 °F - 30.2 °F 81% 30.37 in 10.0 mi Calm Calm - N/A   Clear
3:15 AM 35.6 °F - 28.4 °F 75% 30.37 in 10.0 mi Calm Calm - N/A   Mostly Cloudy
3:35 AM 35.6 °F - 28.4 °F 75% 30.38 in 10.0 mi Calm Calm - N/A   Scattered Clouds
3:55 AM 33.8 °F 29.6 °F 28.4 °F 81% 30.39 in 10.0 mi WSW 4.6 mph - N/A   Clear
4:15 AM 33.8 °F - 30.2 °F 87% 30.40 in 10.0 mi Calm Calm - N/A   Clear
4:35 AM 32.0 °F 27.5 °F 26.6 °F 80% 30.40 in 10.0 mi ENE 4.6 mph - N/A   Clear
5:15 AM 33.8 °F - 28.4 °F 81% 30.41 in 10.0 mi Calm Calm - N/A   Clear
5:34 AM 32.0 °F - 28.4 °F 87% 30.41 in 10.0 mi Calm Calm - N/A   Clear
6:05 AM 32.0 °F - 28.4 °F 87% 30.42 in 10.0 mi Calm Calm - N/A   Clear
6:32 AM 30.2 °F - 26.6 °F 86% 30.43 in 10.0 mi Calm Calm - N/A   Clear
7:14 AM 32.0 °F - 26.6 °F 80% 30.44 in 10.0 mi Calm Calm - N/A   Scattered Clouds
7:35 AM 32.0 °F - 26.6 °F 80% 30.45 in 10.0 mi Calm Calm - N/A   Clear
7:55 AM 32.0 °F - 28.4 °F 87% 30.47 in 10.0 mi Calm Calm - N/A   Clear
8:11 AM 33.8 °F - 28.4 °F 81% 30.47 in 10.0 mi Calm Calm - N/A   Clear
8:33 AM 35.6 °F 32.8 °F 28.4 °F 75% 30.46 in 10.0 mi SE 3.5 mph - N/A   Clear
9:15 AM 41.0 °F - 28.4 °F 61% 30.46 in 10.0 mi Calm Calm - N/A   Clear
9:35 AM 42.8 °F - 28.4 °F 57% 30.46 in 10.0 mi Calm Calm - N/A   Clear
9:44 AM 44.6 °F - 30.2 °F 57% 30.46 in 10.0 mi Calm Calm - N/A   Clear
10:14 AM 50.0 °F - 30.2 °F 47% 30.45 in 10.0 mi Calm Calm - N/A   Clear
10:31 AM 51.8 °F - 32.0 °F 47% 30.44 in 10.0 mi Calm Calm - N/A   Clear
10:55 AM 53.6 °F - 32.0 °F 44% 30.43 in 10.0 mi Calm Calm - N/A   Clear
11:14 AM 55.4 °F - 32.0 °F 41% 30.42 in 10.0 mi Calm Calm - N/A   Clear
11:26 AM 57.2 °F - 32.0 °F 38% 30.41 in 10.0 mi Calm Calm - N/A   Clear
12:15 PM 62.6 °F - 26.6 °F 26% 30.39 in 10.0 mi NNW 4.6 mph - N/A   Clear
12:28 PM 64.4 °F - 23.0 °F 21% 30.38 in 10.0 mi NNE 8.1 mph - N/A   Clear
12:53 PM 66.2 °F - 19.4 °F 17% 30.37 in 10.0 mi North 5.8 mph - N/A   Clear
1:15 PM 69.8 °F - 23.0 °F 17% 30.36 in 10.0 mi NW 4.6 mph - N/A   Clear
1:35 PM 69.8 °F - 17.6 °F 14% 30.35 in 10.0 mi North 11.5 mph 17.3 mph N/A   Clear
2:08 PM 69.8 °F - 17.6 °F 14% 30.34 in 10.0 mi NNW 6.9 mph - N/A   Clear
2:32 PM 69.8 °F - 8.6 °F 9% 30.32 in 10.0 mi NE 11.5 mph 17.3 mph N/A   Clear
2:54 PM 69.8 °F - 15.8 °F 13% 30.32 in 10.0 mi NE 9.2 mph - N/A   Clear
3:10 PM 69.8 °F - 19.4 °F 15% 30.32 in 10.0 mi NNE 9.2 mph - N/A   Clear
3:29 PM 69.8 °F - 21.2 °F 16% 30.31 in 10.0 mi North 9.2 mph - N/A   Clear
3:52 PM 69.8 °F - 23.0 °F 17% 30.31 in 10.0 mi NNW 4.6 mph - N/A   Clear
4:15 PM 69.8 °F - 21.2 °F 16% 30.30 in 10.0 mi NNW 8.1 mph - N/A   Clear
4:32 PM 68.0 °F - 23.0 °F 18% 30.30 in 10.0 mi North 9.2 mph - N/A   Clear
4:55 PM 69.8 °F - 21.2 °F 16% 30.30 in 10.0 mi NNW 9.2 mph - N/A   Clear
5:15 PM 69.8 °F - 23.0 °F 17% 30.30 in 10.0 mi NW 8.1 mph - N/A   Clear
5:35 PM 68.0 °F - 23.0 °F 18% 30.30 in 10.0 mi NNW 10.4 mph - N/A   Clear
5:54 PM 66.2 °F - 23.0 °F 19% 30.30 in 10.0 mi NW 9.2 mph - N/A   Clear
6:14 PM 62.6 °F - 23.0 °F 22% 30.30 in 10.0 mi NW 12.7 mph - N/A   Clear
6:34 PM 60.8 °F - 23.0 °F 23% 30.30 in 10.0 mi NW 10.4 mph - N/A   Clear
6:55 PM 59.0 °F - 23.0 °F 25% 30.30 in 10.0 mi NNW 9.2 mph - N/A   Clear
7:15 PM 59.0 °F - 23.0 °F 25% 30.30 in 10.0 mi Calm Calm - N/A   Clear
7:33 PM 55.4 °F - 23.0 °F 29% 30.30 in 10.0 mi Calm Calm - N/A   Clear
7:55 PM 57.2 °F - 21.2 °F 25% 30.31 in 10.0 mi NW 4.6 mph - N/A   Clear
8:14 PM 55.4 °F - 21.2 °F 26% 30.31 in 10.0 mi North 3.5 mph - N/A   Clear
8:35 PM 55.4 °F - 23.0 °F 29% 30.32 in 10.0 mi NNW 4.6 mph - N/A   Clear
9:15 PM 50.0 °F - 26.6 °F 40% 30.32 in 10.0 mi Calm Calm - N/A   Clear
9:35 PM 48.2 °F - 28.4 °F 46% 30.33 in 10.0 mi Calm Calm - N/A   Clear
9:54 PM 42.8 °F - 26.6 °F 53% 30.32 in 10.0 mi Calm Calm - N/A   Clear
10:15 PM 42.8 °F 41.1 °F 26.6 °F 53% 30.32 in 10.0 mi NW 3.5 mph - N/A   Clear
10:33 PM 42.8 °F - 26.6 °F 53% 30.32 in 10.0 mi Calm Calm - N/A   Clear
10:55 PM 39.2 °F - 23.0 °F 52% 30.32 in 10.0 mi Calm Calm - N/A   Clear
11:14 PM 41.0 °F 37.1 °F 26.6 °F 57% 30.32 in 10.0 mi East 5.8 mph - N/A   Clear
11:35 PM 39.2 °F - 24.8 °F 56% 30.32 in 10.0 mi Calm Calm - N/A   Clear
11:55 PM 41.0 °F - 26.6 °F 57% 30.32 in 10.0 mi Calm Calm - N/A   Clear